Parkway South

*Note: All times are displayed in the local standard time of the station location.
**Rain - Equipment is designed to accurately record liquid precipitation; under conditions when precipitation is not in liquid form, the data displayed may not properly reflect rainfall values.

Date Max Temp
(°C)
Min Temp
(°C)
Avg Temp
(°C)
Rain (mm) Avg RH (%)
Fri, Feb 15, 2019 6.1 -3.6 2.0 1.6 73.2
Thu, Feb 14, 2019 6.4 -4.1 0.1 0.0 68.3
Wed, Feb 13, 2019 1.6 -4.1 -2.0 0.0 78.2
Tue, Feb 12, 2019 2.9 -5.0 -1.9 7.8 88.7
Mon, Feb 11, 2019 -2.0 -4.7 -3.2 0.0 74.8
Sun, Feb 10, 2019 -2.9 -8.2 -5.2 0.0 69.9
Sat, Feb 09, 2019 -3.9 -9.0 -6.3 0.0 65.5
DateTime Avg Temp (°C) Rain (mm) RH (%)
Sat, Feb 16, 2019 16:00 -2.2 0.0 64.0
Sat, Feb 16, 2019 15:00 -2.7 0.0 67.1
Sat, Feb 16, 2019 14:00 -2.7 0.0 67.6
Sat, Feb 16, 2019 13:00 -3.3 0.0 68.2
Sat, Feb 16, 2019 12:00 -3.4 0.0 67.6
Sat, Feb 16, 2019 11:00 -3.1 0.0 66.7
Sat, Feb 16, 2019 10:00 -3.1 0.0 65.5
Sat, Feb 16, 2019 09:00 -3.4 0.0 66.3
Sat, Feb 16, 2019 08:00 -3.8 0.0 68.9
Sat, Feb 16, 2019 07:00 -3.6 0.0 66.1
Sat, Feb 16, 2019 06:00 -2.8 0.0 67.5
Sat, Feb 16, 2019 05:00 -2.9 0.0 78.6
Sat, Feb 16, 2019 04:00 -3.2 0.0 80.0
Sat, Feb 16, 2019 03:00 -3.1 0.0 77.7
Sat, Feb 16, 2019 02:00 -3.2 0.0 74.6
Sat, Feb 16, 2019 01:00 -3.3 0.0 73.1
Sat, Feb 16, 2019 00:00 -3.5 0.0 71.9
Fri, Feb 15, 2019 23:00 -3.5 0.0 70.8
Fri, Feb 15, 2019 22:00 -3.2 0.0 68.6
Fri, Feb 15, 2019 21:00 -2.5 0.0 67.3
Fri, Feb 15, 2019 20:00 -1.8 0.0 68.8
Fri, Feb 15, 2019 19:00 -1.3 0.0 68.5
Fri, Feb 15, 2019 18:00 -0.7 0.0 66.6
Fri, Feb 15, 2019 17:00 0.1 0.0 66.9
Fri, Feb 15, 2019 16:00 0.7 0.0 70.0
Fri, Feb 15, 2019 15:00 1.2 0.0 67.7
Fri, Feb 15, 2019 14:00 2.4 0.0 65.2
Fri, Feb 15, 2019 13:00 2.7 0.0 66.0
Fri, Feb 15, 2019 12:00 3.2 0.0 72.6
Fri, Feb 15, 2019 11:00 4.6 0.0 76.5
Fri, Feb 15, 2019 10:00 4.7 0.0 85.8
Fri, Feb 15, 2019 09:00 4.8 0.0 88.8
Fri, Feb 15, 2019 08:00 4.8 0.0 90.5
Fri, Feb 15, 2019 07:00 4.6 0.0 92.7
Fri, Feb 15, 2019 06:00 4.8 0.8 90.7
Fri, Feb 15, 2019 05:00 4.7 0.6 87.6
Fri, Feb 15, 2019 04:00 5.8 0.0 70.3
Fri, Feb 15, 2019 03:00 5.4 0.2 63.5
Fri, Feb 15, 2019 02:00 4.8 0.0 59.6
Fri, Feb 15, 2019 01:00 4.9 0.0 60.9
Fri, Feb 15, 2019 00:00 6.0 0.0 58.0
Thu, Feb 14, 2019 23:00 4.7 0.0 58.6
Thu, Feb 14, 2019 22:00 2.8 0.0 67.4
Thu, Feb 14, 2019 21:00 1.3 0.0 72.7
Thu, Feb 14, 2019 20:00 1.2 0.0 70.4
Thu, Feb 14, 2019 19:00 1.7 0.0 65.0
Thu, Feb 14, 2019 18:00 2.4 0.0 58.9
Thu, Feb 14, 2019 17:00 3.0 0.0 54.5


asterix Register now to access more data! asterix